Year,Month,Day,Hour,Minute,Value (Times are PST for temperature in C)
2017,07,19,00,00,18.80
2017,07,19,00,01,18.80
2017,07,19,00,02,18.80
2017,07,19,00,03,18.80
2017,07,19,00,04,18.90
2017,07,19,00,05,18.90
2017,07,19,00,06,18.90
2017,07,19,00,07,18.90
2017,07,19,00,08,18.90
2017,07,19,00,09,18.90
2017,07,19,00,10,18.90
2017,07,19,00,11,18.80
2017,07,19,00,12,18.80
2017,07,19,00,13,18.80
2017,07,19,00,14,18.80
2017,07,19,00,15,18.80
2017,07,19,00,16,18.80
2017,07,19,00,17,18.80
2017,07,19,00,18,18.80
2017,07,19,00,19,18.80
2017,07,19,00,20,18.80
2017,07,19,00,21,18.80
2017,07,19,00,22,18.80
2017,07,19,00,23,18.80
2017,07,19,00,24,18.70
2017,07,19,00,25,18.70
2017,07,19,00,26,18.70
2017,07,19,00,27,18.70
2017,07,19,00,28,18.70
2017,07,19,00,29,18.70
2017,07,19,00,30,18.70
2017,07,19,00,31,18.70
2017,07,19,00,32,18.60
2017,07,19,00,33,18.60
2017,07,19,00,34,18.60
2017,07,19,00,35,18.60
2017,07,19,00,36,18.60
2017,07,19,00,37,18.60
2017,07,19,00,38,18.50
2017,07,19,00,39,18.50
2017,07,19,00,40,18.50
2017,07,19,00,41,18.50
2017,07,19,00,42,18.50
2017,07,19,00,43,18.50
2017,07,19,00,44,18.50
2017,07,19,00,45,18.50
2017,07,19,00,46,18.50
2017,07,19,00,47,18.40
2017,07,19,00,48,18.40
2017,07,19,00,49,18.40
2017,07,19,00,50,18.30
2017,07,19,00,51,18.30
2017,07,19,00,52,18.30
2017,07,19,00,53,18.30
2017,07,19,00,54,18.20
2017,07,19,00,55,18.20
2017,07,19,00,56,18.20
2017,07,19,00,57,18.20
2017,07,19,00,58,18.10
2017,07,19,00,59,18.10
2017,07,19,01,00,18.10
2017,07,19,01,01,18.10
2017,07,19,01,02,18.00
2017,07,19,01,03,18.00
2017,07,19,01,04,17.90
2017,07,19,01,05,17.90
2017,07,19,01,06,17.80
2017,07,19,01,07,17.80
2017,07,19,01,08,17.80
2017,07,19,01,09,17.80
2017,07,19,01,10,17.70
2017,07,19,01,11,17.70
2017,07,19,01,12,17.70
2017,07,19,01,13,17.70
2017,07,19,01,14,17.70
2017,07,19,01,15,17.70
2017,07,19,01,16,17.60
2017,07,19,01,17,17.60
2017,07,19,01,18,17.60
2017,07,19,01,19,17.60
2017,07,19,01,20,17.60
2017,07,19,01,21,17.60
2017,07,19,01,22,17.50
2017,07,19,01,23,17.50
2017,07,19,01,24,17.50
2017,07,19,01,25,17.50
2017,07,19,01,26,17.40
2017,07,19,01,27,17.40
2017,07,19,01,28,17.40
2017,07,19,01,29,17.40
2017,07,19,01,30,17.40
2017,07,19,01,31,17.40
2017,07,19,01,32,17.40
2017,07,19,01,33,17.40
2017,07,19,01,34,17.40
2017,07,19,01,35,17.40
2017,07,19,01,36,17.40
2017,07,19,01,37,17.40
2017,07,19,01,38,17.30
2017,07,19,01,39,17.30
2017,07,19,01,40,17.30
2017,07,19,01,41,17.30
2017,07,19,01,42,17.30
2017,07,19,01,43,17.30
2017,07,19,01,44,17.20
2017,07,19,01,45,17.20
2017,07,19,01,46,17.20
2017,07,19,01,47,17.20
2017,07,19,01,48,17.20
2017,07,19,01,49,17.20
2017,07,19,01,50,17.20
2017,07,19,01,51,17.20
2017,07,19,01,52,17.20
2017,07,19,01,53,17.20
2017,07,19,01,54,17.10
2017,07,19,01,55,17.10
2017,07,19,01,56,17.10
2017,07,19,01,57,17.10
2017,07,19,01,58,17.10
2017,07,19,01,59,17.00
2017,07,19,02,00,17.00
2017,07,19,02,01,17.00
2017,07,19,02,02,17.00
2017,07,19,02,03,17.00
2017,07,19,02,04,17.00
2017,07,19,02,05,16.90
2017,07,19,02,06,16.90
2017,07,19,02,07,16.90
2017,07,19,02,08,16.90
2017,07,19,02,09,16.90
2017,07,19,02,10,16.90
2017,07,19,02,11,16.90
2017,07,19,02,12,16.80
2017,07,19,02,13,16.80
2017,07,19,02,14,16.80
2017,07,19,02,15,16.80
2017,07,19,02,16,16.80
2017,07,19,02,17,16.80
2017,07,19,02,18,16.80
2017,07,19,02,19,16.80
2017,07,19,02,20,16.70
2017,07,19,02,21,16.70
2017,07,19,02,22,16.60
2017,07,19,02,23,16.60
2017,07,19,02,24,16.50
2017,07,19,02,25,16.40
2017,07,19,02,26,16.40
2017,07,19,02,27,16.40
2017,07,19,02,28,16.40
2017,07,19,02,29,16.40
2017,07,19,02,30,16.40
2017,07,19,02,31,16.40
2017,07,19,02,32,16.40
2017,07,19,02,33,16.50
2017,07,19,02,34,16.50
2017,07,19,02,35,16.50
2017,07,19,02,36,16.50
2017,07,19,02,37,16.50
2017,07,19,02,38,16.40
2017,07,19,02,39,16.50
2017,07,19,02,40,16.50
2017,07,19,02,41,16.40
2017,07,19,02,42,16.40
2017,07,19,02,43,16.40
2017,07,19,02,44,16.40
2017,07,19,02,45,16.40
2017,07,19,02,46,16.40
2017,07,19,02,47,16.40
2017,07,19,02,48,16.40
2017,07,19,02,49,16.40
2017,07,19,02,50,16.40
2017,07,19,02,51,16.50
2017,07,19,02,52,16.50
2017,07,19,02,53,16.50
2017,07,19,02,54,16.50
2017,07,19,02,55,16.50
2017,07,19,02,56,16.50
2017,07,19,02,57,16.50
2017,07,19,02,58,16.50
2017,07,19,02,59,16.50
2017,07,19,03,00,16.50
2017,07,19,03,01,16.40
2017,07,19,03,02,16.40
2017,07,19,03,03,16.40
2017,07,19,03,04,16.30
2017,07,19,03,05,16.20
2017,07,19,03,06,16.10
2017,07,19,03,07,16.10
2017,07,19,03,08,16.00
2017,07,19,03,09,15.90
2017,07,19,03,10,15.80
2017,07,19,03,11,15.70
2017,07,19,03,12,15.70
2017,07,19,03,13,15.70
2017,07,19,03,14,15.60
2017,07,19,03,15,15.40
2017,07,19,03,16,15.20
2017,07,19,03,17,15.00
2017,07,19,03,18,14.80
2017,07,19,03,19,14.60
2017,07,19,03,20,14.50
2017,07,19,03,21,14.40
2017,07,19,03,22,14.30
2017,07,19,03,23,14.20
2017,07,19,03,24,14.20
2017,07,19,03,25,14.10
2017,07,19,03,26,14.00
2017,07,19,03,27,14.00
2017,07,19,03,28,13.90
2017,07,19,03,29,13.90
2017,07,19,03,30,13.90
2017,07,19,03,31,13.90
2017,07,19,03,32,13.80
2017,07,19,03,33,13.80
2017,07,19,03,34,13.90
2017,07,19,03,35,14.00
2017,07,19,03,36,14.20
2017,07,19,03,37,14.30
2017,07,19,03,38,14.40
2017,07,19,03,39,14.60
2017,07,19,03,40,14.70
2017,07,19,03,41,14.80
2017,07,19,03,42,14.80
2017,07,19,03,43,14.90
2017,07,19,03,44,15.00
2017,07,19,03,45,15.10
2017,07,19,03,46,15.10
2017,07,19,03,47,15.20
2017,07,19,03,48,15.20
2017,07,19,03,49,15.30
2017,07,19,03,50,15.30
2017,07,19,03,51,15.40
2017,07,19,03,52,15.40
2017,07,19,03,53,15.50
2017,07,19,03,54,15.50
2017,07,19,03,55,15.60
2017,07,19,03,56,15.60
2017,07,19,03,57,15.60
2017,07,19,03,58,15.70
2017,07,19,03,59,15.70
2017,07,19,04,00,15.70
2017,07,19,04,01,15.70
2017,07,19,04,02,15.60
2017,07,19,04,03,15.60
2017,07,19,04,04,15.60
2017,07,19,04,05,15.50
2017,07,19,04,06,15.40
2017,07,19,04,07,15.40
2017,07,19,04,08,15.30
2017,07,19,04,09,15.30
2017,07,19,04,10,15.30
2017,07,19,04,11,15.30
2017,07,19,04,12,15.30
2017,07,19,04,13,15.30
2017,07,19,04,14,15.20
2017,07,19,04,15,15.20
2017,07,19,04,16,15.20
2017,07,19,04,17,15.20
2017,07,19,04,18,15.20
2017,07,19,04,19,15.10
2017,07,19,04,20,15.00
2017,07,19,04,21,14.90
2017,07,19,04,22,14.90
2017,07,19,04,23,14.80
2017,07,19,04,24,14.70
2017,07,19,04,25,14.60
2017,07,19,04,26,14.50
2017,07,19,04,27,14.50
2017,07,19,04,28,14.40
2017,07,19,04,29,14.30
2017,07,19,04,30,14.20
2017,07,19,04,31,14.20
2017,07,19,04,32,14.20
2017,07,19,04,33,14.20
2017,07,19,04,34,14.20
2017,07,19,04,35,14.20
2017,07,19,04,36,14.20
2017,07,19,04,37,14.30
2017,07,19,04,38,14.30
2017,07,19,04,39,14.30
2017,07,19,04,40,14.30
2017,07,19,04,41,14.30
2017,07,19,04,42,14.40
2017,07,19,04,43,14.40
2017,07,19,04,44,14.40
2017,07,19,04,45,14.40
2017,07,19,04,46,14.50
2017,07,19,04,47,14.50
2017,07,19,04,48,14.50
2017,07,19,04,49,14.50
2017,07,19,04,50,14.50
2017,07,19,04,51,14.50
2017,07,19,04,52,14.50
2017,07,19,04,53,14.50
2017,07,19,04,54,14.40
2017,07,19,04,55,14.30
2017,07,19,04,56,14.30
2017,07,19,04,57,14.20
2017,07,19,04,58,14.10
2017,07,19,04,59,14.10
2017,07,19,05,00,14.10
2017,07,19,05,01,14.10
2017,07,19,05,02,14.10
2017,07,19,05,03,14.10
2017,07,19,05,04,14.10
2017,07,19,05,05,14.10
2017,07,19,05,06,14.10
2017,07,19,05,07,14.10
2017,07,19,05,08,14.10
2017,07,19,05,09,14.10
2017,07,19,05,10,14.10
2017,07,19,05,11,14.10
2017,07,19,05,12,14.20
2017,07,19,05,13,14.20
2017,07,19,05,14,14.20
2017,07,19,05,15,14.20
2017,07,19,05,16,14.20
2017,07,19,05,17,14.20
2017,07,19,05,18,14.20
2017,07,19,05,19,14.20
2017,07,19,05,20,14.20
2017,07,19,05,21,14.30
2017,07,19,05,22,14.30
2017,07,19,05,23,14.30
2017,07,19,05,24,14.40
2017,07,19,05,25,14.40
2017,07,19,05,26,14.40
2017,07,19,05,27,14.40
2017,07,19,05,28,14.40
2017,07,19,05,29,14.40
2017,07,19,05,30,14.40
2017,07,19,05,31,14.30
2017,07,19,05,32,14.30
2017,07,19,05,33,14.30
2017,07,19,05,34,14.30
2017,07,19,05,35,14.20
2017,07,19,05,36,14.20
2017,07,19,05,37,14.20
2017,07,19,05,38,14.20
2017,07,19,05,39,14.20
2017,07,19,05,40,14.30
2017,07,19,05,41,14.30
2017,07,19,05,42,14.30
2017,07,19,05,43,14.30
2017,07,19,05,44,14.30
2017,07,19,05,45,14.30
2017,07,19,05,46,14.40
2017,07,19,05,47,14.40
2017,07,19,05,48,14.40
2017,07,19,05,49,14.40
2017,07,19,05,50,14.40
2017,07,19,05,51,14.40
2017,07,19,05,52,14.40
2017,07,19,05,53,14.40
2017,07,19,05,54,14.40
2017,07,19,05,55,14.40
2017,07,19,05,56,14.40
2017,07,19,05,57,14.40
2017,07,19,05,58,14.40
2017,07,19,05,59,14.40
2017,07,19,06,00,14.40
2017,07,19,06,01,14.30
2017,07,19,06,02,14.30
2017,07,19,06,03,14.30
2017,07,19,06,04,14.30
2017,07,19,06,05,14.20
2017,07,19,06,06,14.20
2017,07,19,06,07,14.10
2017,07,19,06,08,14.00
2017,07,19,06,09,13.90
2017,07,19,06,10,13.80
2017,07,19,06,11,13.80
2017,07,19,06,12,13.70
2017,07,19,06,13,13.70
2017,07,19,06,14,13.70
2017,07,19,06,15,13.70
2017,07,19,06,16,13.60
2017,07,19,06,17,13.60
2017,07,19,06,18,13.60
2017,07,19,06,19,13.50
2017,07,19,06,20,13.50
2017,07,19,06,21,13.50
2017,07,19,06,22,13.60
2017,07,19,06,23,13.50
2017,07,19,06,24,13.50
2017,07,19,06,25,13.50
2017,07,19,06,26,13.50
2017,07,19,06,27,13.60
2017,07,19,06,28,13.60
2017,07,19,06,29,13.60
2017,07,19,06,30,13.70
2017,07,19,06,31,13.70
2017,07,19,06,32,13.80
2017,07,19,06,33,13.80
2017,07,19,06,34,13.80
2017,07,19,06,35,13.90
2017,07,19,06,36,13.90
2017,07,19,06,37,14.00
2017,07,19,06,38,14.10
2017,07,19,06,39,14.10
2017,07,19,06,40,14.10
2017,07,19,06,41,14.20
2017,07,19,06,42,14.20
2017,07,19,06,43,14.30
2017,07,19,06,44,14.30
2017,07,19,06,45,14.40
2017,07,19,06,46,14.50
2017,07,19,06,47,14.50
2017,07,19,06,48,14.60
2017,07,19,06,49,14.70
2017,07,19,06,50,14.70
2017,07,19,06,51,14.70
2017,07,19,06,52,14.70
2017,07,19,06,53,14.70
2017,07,19,06,54,14.70
2017,07,19,06,55,14.70
2017,07,19,06,56,14.70
2017,07,19,06,57,14.80
2017,07,19,06,58,14.80
2017,07,19,06,59,14.90
2017,07,19,07,00,14.90
2017,07,19,07,01,15.00
2017,07,19,07,02,15.10
2017,07,19,07,03,15.20
2017,07,19,07,04,15.30
2017,07,19,07,05,15.40
2017,07,19,07,06,15.50
2017,07,19,07,07,15.60
2017,07,19,07,08,15.70
2017,07,19,07,09,15.80
2017,07,19,07,10,15.90
2017,07,19,07,11,16.00
2017,07,19,07,12,16.00
2017,07,19,07,13,16.10
2017,07,19,07,14,16.20
2017,07,19,07,15,16.20
2017,07,19,07,16,16.20
2017,07,19,07,17,16.30
2017,07,19,07,18,16.30
2017,07,19,07,19,16.30
2017,07,19,07,20,16.30
2017,07,19,07,21,16.40
2017,07,19,07,22,16.40
2017,07,19,07,23,16.40
2017,07,19,07,24,16.40
2017,07,19,07,25,16.40
2017,07,19,07,26,16.40
2017,07,19,07,27,16.40
2017,07,19,07,28,16.40
2017,07,19,07,29,16.40
2017,07,19,07,30,16.40
2017,07,19,07,31,16.40
2017,07,19,07,32,16.40
2017,07,19,07,33,16.40
2017,07,19,07,34,16.40
2017,07,19,07,35,16.40
2017,07,19,07,36,16.40
2017,07,19,07,37,16.40
2017,07,19,07,38,16.40
2017,07,19,07,39,16.40
2017,07,19,07,40,16.40
2017,07,19,07,41,16.40
2017,07,19,07,42,16.40
2017,07,19,07,43,16.40
2017,07,19,07,44,16.40
2017,07,19,07,45,16.40
2017,07,19,07,46,16.40
2017,07,19,07,47,16.40
2017,07,19,07,48,16.40
2017,07,19,07,49,16.40
2017,07,19,07,50,16.40
2017,07,19,07,51,16.40
2017,07,19,07,52,16.40
2017,07,19,07,53,16.40
2017,07,19,07,54,16.40
2017,07,19,07,55,16.40
2017,07,19,07,56,16.40
2017,07,19,07,57,16.40
2017,07,19,07,58,16.40
2017,07,19,07,59,16.50
2017,07,19,08,00,16.50
2017,07,19,08,01,16.50
2017,07,19,08,02,16.50
2017,07,19,08,03,16.50
2017,07,19,08,04,16.50
2017,07,19,08,05,16.50
2017,07,19,08,06,16.50
2017,07,19,08,07,16.50
2017,07,19,08,08,16.50
2017,07,19,08,09,16.50
2017,07,19,08,10,16.50
2017,07,19,08,11,16.50
2017,07,19,08,12,16.50
2017,07,19,08,13,16.50
2017,07,19,08,14,16.40
2017,07,19,08,15,16.40
2017,07,19,08,16,16.40
2017,07,19,08,17,16.40
2017,07,19,08,18,16.50
2017,07,19,08,19,16.50
2017,07,19,08,20,16.50
2017,07,19,08,21,16.50
2017,07,19,08,22,16.50
2017,07,19,08,23,16.50
2017,07,19,08,24,16.60
2017,07,19,08,25,16.60
2017,07,19,08,26,16.60
2017,07,19,08,27,16.70
2017,07,19,08,28,16.70
2017,07,19,08,29,16.80
2017,07,19,08,30,16.80
2017,07,19,08,31,16.90
2017,07,19,08,32,17.00
2017,07,19,08,33,17.00
2017,07,19,08,34,17.10
2017,07,19,08,35,17.20
2017,07,19,08,36,17.20
2017,07,19,08,37,17.30
2017,07,19,08,38,17.40
2017,07,19,08,39,17.50
2017,07,19,08,40,17.60
2017,07,19,08,41,17.70
2017,07,19,08,42,17.70
2017,07,19,08,43,17.80
2017,07,19,08,44,17.80
2017,07,19,08,45,17.90
2017,07,19,08,46,18.00
2017,07,19,08,47,18.00
2017,07,19,08,48,18.10
2017,07,19,08,49,18.20
2017,07,19,08,50,18.20
2017,07,19,08,51,18.20
2017,07,19,08,52,18.30
2017,07,19,08,53,18.30
2017,07,19,08,54,18.30
2017,07,19,08,55,18.30
2017,07,19,08,56,18.30
2017,07,19,08,57,18.30
2017,07,19,08,58,18.30
2017,07,19,08,59,18.30
2017,07,19,09,00,18.30
2017,07,19,09,01,18.30
2017,07,19,09,02,18.30
2017,07,19,09,03,18.30
2017,07,19,09,04,18.40
2017,07,19,09,05,18.50
2017,07,19,09,06,18.50
2017,07,19,09,07,18.50
2017,07,19,09,08,18.50
2017,07,19,09,09,18.50
2017,07,19,09,10,18.50
2017,07,19,09,11,18.50
2017,07,19,09,12,18.50
2017,07,19,09,13,18.40
2017,07,19,09,14,18.50
2017,07,19,09,15,18.50
2017,07,19,09,16,18.60
2017,07,19,09,17,18.60
2017,07,19,09,18,18.60
2017,07,19,09,19,18.70
2017,07,19,09,20,18.70
2017,07,19,09,21,18.80
2017,07,19,09,22,18.80
2017,07,19,09,23,18.90
2017,07,19,09,24,18.90
2017,07,19,09,25,18.90
2017,07,19,09,26,18.90
2017,07,19,09,27,18.90
2017,07,19,09,28,18.90
2017,07,19,09,29,18.90
2017,07,19,09,30,19.00
2017,07,19,09,31,19.00
2017,07,19,09,32,19.10
2017,07,19,09,33,19.10
2017,07,19,09,34,19.20
2017,07,19,09,35,19.20
2017,07,19,09,36,19.30
2017,07,19,09,37,19.40
2017,07,19,09,38,19.40
2017,07,19,09,39,19.50
2017,07,19,09,40,19.60
2017,07,19,09,41,19.60
2017,07,19,09,42,19.70
2017,07,19,09,43,19.70
2017,07,19,09,44,19.80
2017,07,19,09,45,19.70
2017,07,19,09,46,19.70
2017,07,19,09,47,19.70
2017,07,19,09,48,19.70
2017,07,19,09,49,19.80
2017,07,19,09,50,19.90
2017,07,19,09,51,20.00
2017,07,19,09,52,20.10
2017,07,19,09,53,20.20
2017,07,19,09,54,20.20
2017,07,19,09,55,20.30
2017,07,19,09,56,20.30
2017,07,19,09,57,20.50
2017,07,19,09,58,20.60
2017,07,19,09,59,20.70
2017,07,19,10,00,20.80
2017,07,19,10,01,20.80
2017,07,19,10,02,20.80
2017,07,19,10,03,20.80
2017,07,19,10,04,20.80
2017,07,19,10,05,20.90
2017,07,19,10,06,20.90
2017,07,19,10,07,20.90
2017,07,19,10,08,20.90
2017,07,19,10,09,20.90
2017,07,19,10,10,21.00
2017,07,19,10,11,20.90
2017,07,19,10,12,21.00
2017,07,19,10,13,21.00
2017,07,19,10,14,21.10
2017,07,19,10,15,21.30
2017,07,19,10,16,21.30
2017,07,19,10,17,21.30
2017,07,19,10,18,21.30
2017,07,19,10,19,21.20
2017,07,19,10,20,21.20
2017,07,19,10,21,21.20
2017,07,19,10,22,21.30
2017,07,19,10,23,21.40
2017,07,19,10,24,21.40
2017,07,19,10,25,21.40
2017,07,19,10,26,21.50
2017,07,19,10,27,21.40
2017,07,19,10,28,21.40
2017,07,19,10,29,21.40
2017,07,19,10,30,21.40
2017,07,19,10,31,21.40
2017,07,19,10,32,21.40
2017,07,19,10,33,21.30
2017,07,19,10,34,21.30
2017,07,19,10,35,21.30
2017,07,19,10,36,21.30
2017,07,19,10,37,21.30
2017,07,19,10,38,21.40
2017,07,19,10,39,21.40
2017,07,19,10,40,21.40
2017,07,19,10,41,21.50
2017,07,19,10,42,21.50
2017,07,19,10,43,21.50
2017,07,19,10,44,21.60
2017,07,19,10,45,21.50
2017,07,19,10,46,21.50
2017,07,19,10,47,21.60
2017,07,19,10,48,21.60
2017,07,19,10,49,21.70
2017,07,19,10,50,21.70
2017,07,19,10,51,21.80
2017,07,19,10,52,21.80
2017,07,19,10,53,21.90
2017,07,19,10,54,21.90
2017,07,19,10,55,21.90
2017,07,19,10,56,21.80
2017,07,19,10,57,21.80
2017,07,19,10,58,21.80
2017,07,19,10,59,21.80
2017,07,19,11,00,21.70
2017,07,19,11,01,21.70
2017,07,19,11,02,21.70
2017,07,19,11,03,21.70
2017,07,19,11,04,21.60
2017,07,19,11,05,21.60
2017,07,19,11,06,21.60
2017,07,19,11,07,21.60
2017,07,19,11,08,21.60
2017,07,19,11,09,21.70
2017,07,19,11,10,21.70
2017,07,19,11,11,21.70
2017,07,19,11,12,21.70
2017,07,19,11,13,21.70
2017,07,19,11,14,21.70
2017,07,19,11,15,21.70
2017,07,19,11,16,21.80
2017,07,19,11,17,21.80
2017,07,19,11,18,21.90
2017,07,19,11,19,21.80
2017,07,19,11,20,21.80
2017,07,19,11,21,21.80
2017,07,19,11,22,21.80
2017,07,19,11,23,21.80
2017,07,19,11,24,21.80
2017,07,19,11,25,21.80
2017,07,19,11,26,21.80
2017,07,19,11,27,21.90
2017,07,19,11,28,22.00
2017,07,19,11,29,22.10
2017,07,19,11,30,22.10
2017,07,19,11,31,22.10
2017,07,19,11,32,22.10
2017,07,19,11,33,22.10
2017,07,19,11,34,22.10
2017,07,19,11,35,22.10
2017,07,19,11,36,22.10
2017,07,19,11,37,22.00
2017,07,19,11,38,22.00
2017,07,19,11,39,22.00
2017,07,19,11,40,22.10
2017,07,19,11,41,22.20
2017,07,19,11,42,22.10
2017,07,19,11,43,22.10
2017,07,19,11,44,22.10
2017,07,19,11,45,22.10
2017,07,19,11,46,22.20
2017,07,19,11,47,22.20
2017,07,19,11,48,22.20
2017,07,19,11,49,22.20
2017,07,19,11,50,22.20
2017,07,19,11,51,22.20
2017,07,19,11,52,22.20
2017,07,19,11,53,22.20
2017,07,19,11,54,22.20
2017,07,19,11,55,22.20
2017,07,19,11,56,22.20
2017,07,19,11,57,22.20
2017,07,19,11,58,22.10
2017,07,19,11,59,22.10
2017,07,19,12,00,22.00
2017,07,19,12,01,22.00
2017,07,19,12,02,22.00
2017,07,19,12,03,21.90
2017,07,19,12,04,21.90
2017,07,19,12,05,21.80
2017,07,19,12,06,21.90
2017,07,19,12,07,22.00
2017,07,19,12,08,22.00
2017,07,19,12,09,22.10
2017,07,19,12,10,22.10
2017,07,19,12,11,22.10
2017,07,19,12,12,22.10
2017,07,19,12,13,22.10
2017,07,19,12,14,22.10
2017,07,19,12,15,22.10
2017,07,19,12,16,22.10
2017,07,19,12,17,22.10
2017,07,19,12,18,22.10
2017,07,19,12,19,22.00
2017,07,19,12,20,22.00
2017,07,19,12,21,22.00
2017,07,19,12,22,22.10
2017,07,19,12,23,22.10
2017,07,19,12,24,22.10
2017,07,19,12,25,22.10
2017,07,19,12,26,22.10
2017,07,19,12,27,22.10
2017,07,19,12,28,22.00
2017,07,19,12,29,22.00
2017,07,19,12,30,22.00
2017,07,19,12,31,22.00
2017,07,19,12,32,21.90
2017,07,19,12,33,21.90
2017,07,19,12,34,21.90
2017,07,19,12,35,21.90
2017,07,19,12,36,21.90
2017,07,19,12,37,22.00
2017,07,19,12,38,21.90
2017,07,19,12,39,21.90
2017,07,19,12,40,21.90
2017,07,19,12,41,21.90
2017,07,19,12,42,22.00
2017,07,19,12,43,22.00
2017,07,19,12,44,22.00
2017,07,19,12,45,22.10
2017,07,19,12,46,22.10
2017,07,19,12,47,22.10
2017,07,19,12,48,22.10
2017,07,19,12,49,22.10
2017,07,19,12,50,22.10
2017,07,19,12,51,22.10
2017,07,19,12,52,22.10
2017,07,19,12,53,22.10
2017,07,19,12,54,22.10
2017,07,19,12,55,22.10
2017,07,19,12,56,22.10
2017,07,19,12,57,22.10
2017,07,19,12,58,22.10
2017,07,19,12,59,22.10
2017,07,19,13,00,22.10
2017,07,19,13,01,22.20
2017,07,19,13,02,22.30
2017,07,19,13,03,22.30
2017,07,19,13,04,22.30
2017,07,19,13,05,22.40
2017,07,19,13,06,22.40
2017,07,19,13,07,22.40
2017,07,19,13,08,22.50
2017,07,19,13,09,22.50
2017,07,19,13,10,22.50
2017,07,19,13,11,22.50
2017,07,19,13,12,22.50
2017,07,19,13,13,22.50
2017,07,19,13,14,22.50
2017,07,19,13,15,22.60
2017,07,19,13,16,22.70
2017,07,19,13,17,22.70
2017,07,19,13,18,22.70
2017,07,19,13,19,22.70
2017,07,19,13,20,22.80
2017,07,19,13,21,22.90
2017,07,19,13,22,23.10
2017,07,19,13,23,23.20
2017,07,19,13,24,23.30
2017,07,19,13,25,23.40
2017,07,19,13,26,23.40
2017,07,19,13,27,23.40
2017,07,19,13,28,23.30
2017,07,19,13,29,23.30
2017,07,19,13,30,23.30
2017,07,19,13,31,23.30
2017,07,19,13,32,23.30
2017,07,19,13,33,23.30
2017,07,19,13,34,23.30
2017,07,19,13,35,23.40
2017,07,19,13,36,23.40
2017,07,19,13,37,23.40
2017,07,19,13,38,23.30
2017,07,19,13,39,23.30
2017,07,19,13,40,23.30
2017,07,19,13,41,23.20
2017,07,19,13,42,23.20
2017,07,19,13,43,23.10
2017,07,19,13,44,23.10
2017,07,19,13,45,23.10
2017,07,19,13,46,23.10
2017,07,19,13,47,23.00
2017,07,19,13,48,23.00
2017,07,19,13,49,22.90
2017,07,19,13,50,23.00
2017,07,19,13,51,23.00
2017,07,19,13,52,23.10
2017,07,19,13,53,23.00
2017,07,19,13,54,22.90
2017,07,19,13,55,22.90
2017,07,19,13,56,22.90
2017,07,19,13,57,22.90
2017,07,19,13,58,22.90
2017,07,19,13,59,23.00
2017,07,19,14,00,23.00
2017,07,19,14,01,23.10
2017,07,19,14,02,23.00
2017,07,19,14,03,23.00
2017,07,19,14,04,23.00
2017,07,19,14,05,23.00
2017,07,19,14,06,23.00
2017,07,19,14,07,23.00
2017,07,19,14,08,23.00
2017,07,19,14,09,23.00
2017,07,19,14,10,23.10
2017,07,19,14,11,23.10
2017,07,19,14,12,23.10
2017,07,19,14,13,23.10
2017,07,19,14,14,23.00
2017,07,19,14,15,23.00
2017,07,19,14,16,23.00
2017,07,19,14,17,23.00
2017,07,19,14,18,23.10
2017,07,19,14,19,23.10
2017,07,19,14,20,23.10
2017,07,19,14,21,23.10
2017,07,19,14,22,23.10
2017,07,19,14,23,23.10
2017,07,19,14,24,23.10
2017,07,19,14,25,23.10
2017,07,19,14,26,23.10
2017,07,19,14,27,23.00
2017,07,19,14,28,23.00
2017,07,19,14,29,23.00
2017,07,19,14,30,23.00
2017,07,19,14,31,23.10
2017,07,19,14,32,23.00
2017,07,19,14,33,23.10
2017,07,19,14,34,23.10
2017,07,19,14,35,23.10
2017,07,19,14,36,23.10
2017,07,19,14,37,23.10
2017,07,19,14,38,23.10
2017,07,19,14,39,23.10
2017,07,19,14,40,23.10
2017,07,19,14,41,23.20
2017,07,19,14,42,23.10
2017,07,19,14,43,23.10
2017,07,19,14,44,23.10
2017,07,19,14,45,23.10
2017,07,19,14,46,23.10
2017,07,19,14,47,23.00
2017,07,19,14,48,23.00
2017,07,19,14,49,22.90
2017,07,19,14,50,22.90
2017,07,19,14,51,22.90
2017,07,19,14,52,22.90
2017,07,19,14,53,23.00
2017,07,19,14,54,23.00
2017,07,19,14,55,23.10
2017,07,19,14,56,23.10
2017,07,19,14,57,23.10
2017,07,19,14,58,23.10
2017,07,19,14,59,23.10
2017,07,19,15,00,23.10
2017,07,19,15,01,23.10
2017,07,19,15,02,23.20
2017,07,19,15,03,23.20
2017,07,19,15,04,23.30
2017,07,19,15,05,23.30
2017,07,19,15,06,23.40
2017,07,19,15,07,23.40
2017,07,19,15,08,23.40
2017,07,19,15,09,23.40
2017,07,19,15,10,23.40
2017,07,19,15,11,23.40
2017,07,19,15,12,23.30
2017,07,19,15,13,23.30
2017,07,19,15,14,23.30
2017,07,19,15,15,23.20
2017,07,19,15,16,23.20
2017,07,19,15,17,23.20
2017,07,19,15,18,23.20
2017,07,19,15,19,23.30
2017,07,19,15,20,23.30
2017,07,19,15,21,23.30
2017,07,19,15,22,23.30
2017,07,19,15,23,23.30
2017,07,19,15,24,23.30
2017,07,19,15,25,23.30
2017,07,19,15,26,23.30
2017,07,19,15,27,23.30
2017,07,19,15,28,23.30
2017,07,19,15,29,23.30
2017,07,19,15,30,23.30
2017,07,19,15,31,23.30
2017,07,19,15,32,23.30
2017,07,19,15,33,23.30
2017,07,19,15,34,23.30
2017,07,19,15,35,23.30
2017,07,19,15,36,23.20
2017,07,19,15,37,23.20
2017,07,19,15,38,23.20
2017,07,19,15,39,23.20
2017,07,19,15,40,23.10
2017,07,19,15,41,23.10
2017,07,19,15,42,23.00
2017,07,19,15,43,23.00
2017,07,19,15,44,22.90
2017,07,19,15,45,22.90
2017,07,19,15,46,22.90
2017,07,19,15,47,22.90
2017,07,19,15,48,22.90
2017,07,19,15,49,22.90
2017,07,19,15,50,22.90
2017,07,19,15,51,22.90
2017,07,19,15,52,22.80
2017,07,19,15,53,22.80
2017,07,19,15,54,22.80
2017,07,19,15,55,22.80
2017,07,19,15,56,22.90
2017,07,19,15,57,22.90
2017,07,19,15,58,23.00
2017,07,19,15,59,23.00
2017,07,19,16,00,23.00
2017,07,19,16,01,22.90
2017,07,19,16,02,22.90
2017,07,19,16,03,22.80
2017,07,19,16,04,22.80
2017,07,19,16,05,22.80
2017,07,19,16,06,22.80
2017,07,19,16,07,22.70
2017,07,19,16,08,22.70
2017,07,19,16,09,22.70
2017,07,19,16,10,22.70
2017,07,19,16,11,22.60
2017,07,19,16,12,22.70
2017,07,19,16,13,22.70
2017,07,19,16,14,22.70
2017,07,19,16,15,22.70
2017,07,19,16,16,22.70
2017,07,19,16,17,22.70
2017,07,19,16,18,22.70
2017,07,19,16,19,22.70
2017,07,19,16,20,22.80
2017,07,19,16,21,22.80
2017,07,19,16,22,22.80
2017,07,19,16,23,22.80
2017,07,19,16,24,22.80
2017,07,19,16,25,22.80
2017,07,19,16,26,22.80
2017,07,19,16,27,22.80
2017,07,19,16,28,22.80
2017,07,19,16,29,22.80
2017,07,19,16,30,22.80
2017,07,19,16,31,22.90
2017,07,19,16,32,22.90
2017,07,19,16,33,22.90
2017,07,19,16,34,22.90
2017,07,19,16,35,22.90
2017,07,19,16,36,22.90
2017,07,19,16,37,23.00
2017,07,19,16,38,23.00
2017,07,19,16,39,23.00
2017,07,19,16,40,23.00
2017,07,19,16,41,23.10
2017,07,19,16,42,23.10
2017,07,19,16,43,23.10
2017,07,19,16,44,23.20
2017,07,19,16,45,23.20
2017,07,19,16,46,23.20
2017,07,19,16,47,23.20
2017,07,19,16,48,23.30
2017,07,19,16,49,23.30
2017,07,19,16,50,23.30
2017,07,19,16,51,23.30
2017,07,19,16,52,23.30
2017,07,19,16,53,23.30
2017,07,19,16,54,23.20
2017,07,19,16,55,23.20
2017,07,19,16,56,23.20
2017,07,19,16,57,23.20
2017,07,19,16,58,23.30
2017,07,19,16,59,23.30
2017,07,19,17,00,23.30
2017,07,19,17,01,23.30
2017,07,19,17,02,23.30
2017,07,19,17,03,23.30
2017,07,19,17,04,23.30
2017,07,19,17,05,23.30
2017,07,19,17,06,23.30
2017,07,19,17,07,23.30
2017,07,19,17,08,23.20
2017,07,19,17,09,23.10
2017,07,19,17,10,23.10
2017,07,19,17,11,23.00
2017,07,19,17,12,23.00
2017,07,19,17,13,23.10
2017,07,19,17,14,23.10
2017,07,19,17,15,23.10
2017,07,19,17,16,23.10
2017,07,19,17,17,23.10
2017,07,19,17,18,23.10
2017,07,19,17,19,23.10